DLH7LW EDDM-EDDC

Flight info

Callsign DLH7LW
Flight time 0h 34m
Altitude 26000
Route AKINI1N/26R AKINI Y104 MAMOR L132 AGNAV/N0377F250 DCT SUPIL DCT KILNU/N0370F240 L132 ABKIS Q240 DRN
Aircraft A319/M-SDE3FGHIRWY/LB1

Departure

Time 2026-05-04 20:00
Airport Munich Airport (EDDM)

Arrival

Time 2026-05-04 20:34
Airport Dresden Airport (EDDC)
Time Latitude Longitude Altitude Speed Heading
2026-05-04 19:11 48.35246 11.80536 1486 ft 0 kts 353°
2026-05-04 19:12 48.35254 11.80534 1486 ft 0 kts 353°
2026-05-04 19:41 48.35257 11.80534 1486 ft 1 kts 353°
2026-05-04 19:43 48.35255 11.80534 1487 ft 3 kts 353°
2026-05-04 19:43 48.35229 11.80539 1482 ft 4 kts 353°
2026-05-04 19:43 48.35224 11.80542 1482 ft 0 kts 20°
2026-05-04 19:45 48.35254 11.80534 1485 ft 0 kts 353°
2026-05-04 19:47 48.35247 11.80536 1485 ft 4 kts 353°
2026-05-04 19:47 48.35220 11.80541 1481 ft 4 kts 353°
2026-05-04 19:48 48.35196 11.80545 1473 ft 2 kts 353°
2026-05-04 19:48 48.35178 11.80551 1475 ft 4 kts 316°
2026-05-04 19:48 48.35169 11.80582 1477 ft 4 kts 264°
2026-05-04 19:48 48.35171 11.80611 1475 ft 0 kts 263°
2026-05-04 19:51 48.35171 11.80609 1475 ft 0 kts 263°
2026-05-04 19:51 48.35169 11.80586 1476 ft 4 kts 263°
2026-05-04 19:51 48.35164 11.80521 1479 ft 7 kts 263°
2026-05-04 19:52 48.35157 11.80431 1480 ft 10 kts 263°
2026-05-04 19:52 48.35147 11.80306 1485 ft 14 kts 263°
2026-05-04 19:52 48.35135 11.80145 1485 ft 17 kts 263°
2026-05-04 19:52 48.35122 11.79977 1485 ft 16 kts 263°
2026-05-04 19:53 48.35108 11.79802 1485 ft 18 kts 263°
2026-05-04 19:53 48.35099 11.79636 1485 ft 13 kts 277°
2026-05-04 19:53 48.35167 11.79571 1482 ft 13 kts 354°
2026-05-04 19:53 48.35261 11.79556 1476 ft 14 kts 353°
2026-05-04 19:54 48.35362 11.79537 1477 ft 15 kts 352°
2026-05-04 19:54 48.35467 11.79519 1481 ft 15 kts 353°
2026-05-04 19:54 48.35567 11.79503 1485 ft 15 kts 353°
2026-05-04 19:54 48.35670 11.79485 1485 ft 15 kts 353°
2026-05-04 19:55 48.35771 11.79465 1485 ft 14 kts 352°
2026-05-04 19:55 48.35862 11.79453 1482 ft 9 kts 356°
2026-05-04 19:55 48.35922 11.79489 1481 ft 10 kts 31°
2026-05-04 19:55 48.35998 11.79496 1486 ft 11 kts 353°
2026-05-04 19:56 48.36076 11.79484 1483 ft 11 kts
2026-05-04 19:56 48.36112 11.79567 1485 ft 11 kts 84°
2026-05-04 19:56 48.36122 11.79698 1476 ft 14 kts 84°
2026-05-04 19:56 48.36135 11.79863 1485 ft 17 kts 83°
2026-05-04 19:57 48.36150 11.80057 1473 ft 20 kts 84°
2026-05-04 19:57 48.36165 11.80261 1480 ft 20 kts 83°
2026-05-04 19:57 48.36181 11.80462 1481 ft 19 kts 82°
2026-05-04 19:57 48.36216 11.80584 1485 ft 12 kts 13°
2026-05-04 19:58 48.36306 11.80568 1483 ft 13 kts 353°
2026-05-04 19:58 48.36367 11.80482 1476 ft 13 kts 294°
2026-05-04 19:58 48.36404 11.80354 1482 ft 14 kts 293°
2026-05-04 19:58 48.36442 11.80221 1475 ft 15 kts 294°
2026-05-04 19:59 48.36489 11.80077 1481 ft 16 kts 307°
2026-05-04 19:59 48.36521 11.79934 1479 ft 16 kts 263°
2026-05-04 19:59 48.36493 11.79576 1478 ft 73 kts 263°
2026-05-04 19:59 48.36404 11.78426 1487 ft 150 kts 263°
2026-05-04 20:00 48.36269 11.76681 1977 ft 171 kts 264°
2026-05-04 20:00 48.36136 11.74900 2847 ft 175 kts 263°
2026-05-04 20:00 48.35987 11.72958 3211 ft 198 kts 263°
2026-05-04 20:00 48.35821 11.70799 3606 ft 218 kts 263°
2026-05-04 20:01 48.35948 11.68411 4012 ft 241 kts 291°
2026-05-04 20:01 48.36942 11.66378 4850 ft 246 kts 321°
2026-05-04 20:01 48.38485 11.65293 5808 ft 248 kts 346°
2026-05-04 20:01 48.40240 11.64773 6410 ft 269 kts 348°
2026-05-04 20:02 48.42136 11.64218 7076 ft 283 kts 347°
2026-05-04 20:02 48.44094 11.63682 7969 ft 290 kts 353°
2026-05-04 20:02 48.46126 11.63825 8871 ft 297 kts 11°
2026-05-04 20:02 48.48084 11.64913 9779 ft 305 kts 30°
2026-05-04 20:03 48.49755 11.66915 10574 ft 312 kts 49°
2026-05-04 20:03 48.51069 11.69539 11393 ft 316 kts 55°
2026-05-04 20:03 48.52362 11.72246 12269 ft 320 kts 55°
2026-05-04 20:03 48.53677 11.74988 13138 ft 324 kts 55°
2026-05-04 20:04 48.55008 11.77753 14006 ft 326 kts 55°
2026-05-04 20:04 48.56349 11.80533 14783 ft 329 kts 55°
2026-05-04 20:04 48.57706 11.83347 15554 ft 333 kts 55°
2026-05-04 20:04 48.59077 11.86188 16317 ft 336 kts 54°
2026-05-04 20:05 48.60462 11.89061 17064 ft 340 kts 54°
2026-05-04 20:05 48.61862 11.91965 17817 ft 344 kts 54°
2026-05-04 20:05 48.63276 11.94904 18511 ft 348 kts 54°
2026-05-04 20:05 48.64704 11.97879 19170 ft 351 kts 54°
2026-05-04 20:06 48.66141 12.00887 19812 ft 355 kts 54°
2026-05-04 20:06 48.67593 12.03927 20476 ft 358 kts 54°
2026-05-04 20:06 48.69139 12.06892 21123 ft 361 kts 46°
2026-05-04 20:06 48.71045 12.09386 21750 ft 364 kts 34°
2026-05-04 20:07 48.73267 12.11256 22365 ft 367 kts 22°
2026-05-04 20:07 48.75579 12.12815 22973 ft 372 kts 23°
2026-05-04 20:07 48.77980 12.14490 23142 ft 389 kts 24°
2026-05-04 20:07 48.80479 12.16287 23309 ft 405 kts 25°
2026-05-04 20:08 48.83046 12.18160 23712 ft 413 kts 25°
2026-05-04 20:08 48.85645 12.20065 24192 ft 417 kts 25°
2026-05-04 20:08 48.88267 12.21981 24703 ft 420 kts 25°
2026-05-04 20:08 48.90912 12.23892 25206 ft 422 kts 24°
2026-05-04 20:09 48.93584 12.25784 25707 ft 425 kts 24°
2026-05-04 20:09 48.96277 12.27668 26193 ft 427 kts 24°
2026-05-04 20:09 48.98990 12.29561 26679 ft 430 kts 23°
2026-05-04 20:09 49.01715 12.31469 27157 ft 433 kts 24°
2026-05-04 20:10 49.04459 12.33397 27642 ft 435 kts 24°
2026-05-04 20:10 49.07214 12.35338 27878 ft 437 kts 24°
2026-05-04 20:10 49.09943 12.37273 27923 ft 430 kts 24°
2026-05-04 20:10 49.12671 12.39217 27927 ft 432 kts 24°
2026-05-04 20:11 49.15382 12.41154 27931 ft 430 kts 24°
2026-05-04 20:11 49.18088 12.43085 27928 ft 429 kts 24°
2026-05-04 20:11 49.20795 12.45012 27934 ft 429 kts 24°
2026-05-04 20:11 49.23500 12.46937 27932 ft 429 kts 24°
2026-05-04 20:12 49.26205 12.48862 27933 ft 429 kts 24°
2026-05-04 20:12 49.28910 12.50790 27935 ft 429 kts 24°
2026-05-04 20:12 49.31618 12.52724 27939 ft 430 kts 23°
2026-05-04 20:12 49.34406 12.54340 27936 ft 428 kts 13°
2026-05-04 20:13 49.37302 12.55308 27936 ft 427 kts
2026-05-04 20:13 49.40215 12.56209 27936 ft 427 kts
2026-05-04 20:13 49.43124 12.57117 27934 ft 427 kts
2026-05-04 20:13 49.46032 12.58033 27933 ft 427 kts
2026-05-04 20:14 49.48941 12.58957 27937 ft 427 kts
2026-05-04 20:14 49.51844 12.59882 27942 ft 427 kts
2026-05-04 20:14 49.54736 12.60800 27595 ft 431 kts
2026-05-04 20:14 49.57716 12.61735 27327 ft 431 kts
2026-05-04 20:15 49.60621 12.62544 27076 ft 430 kts
2026-05-04 20:15 49.63567 12.63266 26819 ft 428 kts
2026-05-04 20:15 49.66509 12.63933 26567 ft 426 kts
2026-05-04 20:15 49.69441 12.64587 26313 ft 425 kts
2026-05-04 20:16 49.72358 12.65252 26065 ft 424 kts
2026-05-04 20:16 49.75271 12.65937 25829 ft 422 kts
2026-05-04 20:16 49.78169 12.66639 25583 ft 421 kts
2026-05-04 20:16 49.81055 12.67353 25339 ft 420 kts
2026-05-04 20:17 49.83933 12.68073 25099 ft 418 kts
2026-05-04 20:17 49.86802 12.68788 24860 ft 417 kts
2026-05-04 20:17 49.89664 12.69494 24622 ft 416 kts
2026-05-04 20:17 49.92517 12.70193 24392 ft 414 kts
2026-05-04 20:18 49.95362 12.70892 24167 ft 413 kts
2026-05-04 20:18 49.98199 12.71593 23936 ft 412 kts
2026-05-04 20:18 50.01029 12.72297 23708 ft 411 kts
2026-05-04 20:18 50.03852 12.72996 23469 ft 410 kts
2026-05-04 20:19 50.06665 12.73692 23197 ft 409 kts
2026-05-04 20:19 50.09468 12.74389 22926 ft 407 kts
2026-05-04 20:19 50.12248 12.75084 22589 ft 402 kts
2026-05-04 20:19 50.14996 12.75770 22139 ft 398 kts
2026-05-04 20:20 50.17723 12.76449 21682 ft 396 kts
2026-05-04 20:20 50.19518 12.76897 21378 ft 394 kts
2026-05-04 20:20 50.22216 12.77568 20923 ft 391 kts
2026-05-04 20:20 50.24892 12.78234 20452 ft 389 kts
2026-05-04 20:21 50.27558 12.78897 19985 ft 387 kts
2026-05-04 20:21 50.30208 12.79557 19505 ft 385 kts
2026-05-04 20:21 50.36316 12.81245 18383 ft 383 kts 14°
2026-05-04 20:22 50.38012 12.82195 18024 ft 384 kts 22°
2026-05-04 20:22 50.40357 12.84185 17521 ft 383 kts 30°
2026-05-04 20:22 50.42623 12.86350 17041 ft 380 kts 30°
2026-05-04 20:22 50.44879 12.88501 16562 ft 378 kts 30°
2026-05-04 20:23 50.47120 12.90632 16086 ft 376 kts 30°
2026-05-04 20:23 50.49354 12.92749 15749 ft 375 kts 30°
2026-05-04 20:23 50.51600 12.94875 15517 ft 377 kts 30°
2026-05-04 20:23 50.53848 12.97005 15268 ft 377 kts 30°
2026-05-04 20:24 50.56093 12.99140 15014 ft 377 kts 30°
2026-05-04 20:24 50.58332 13.01276 14761 ft 376 kts 30°
2026-05-04 20:24 50.60535 13.03390 14505 ft 376 kts 31°
2026-05-04 20:24 50.62586 13.05924 14257 ft 375 kts 44°
2026-05-04 20:25 50.64271 13.09050 14006 ft 374 kts 56°
2026-05-04 20:25 50.65640 13.12523 13751 ft 373 kts 59°
2026-05-04 20:25 50.67018 13.15970 13476 ft 371 kts 53°
2026-05-04 20:25 50.68807 13.18759 13297 ft 352 kts 37°
2026-05-04 20:26 50.70694 13.21063 13034 ft 336 kts 37°
2026-05-04 20:26 50.72516 13.23284 12587 ft 328 kts 37°
2026-05-04 20:26 50.74308 13.25467 12073 ft 323 kts 37°
2026-05-04 20:26 50.76069 13.27619 11563 ft 318 kts 37°
2026-05-04 20:27 50.77803 13.29741 11005 ft 314 kts 37°
2026-05-04 20:27 50.79540 13.31866 10267 ft 317 kts 37°
2026-05-04 20:27 50.81287 13.34004 9517 ft 318 kts 37°
2026-05-04 20:27 50.83033 13.36147 8740 ft 317 kts 37°
2026-05-04 20:28 50.84772 13.38285 7975 ft 316 kts 38°
2026-05-04 20:28 50.86500 13.40413 7227 ft 314 kts 38°
2026-05-04 20:28 50.88215 13.42524 6500 ft 311 kts 38°
2026-05-04 20:28 50.89895 13.44621 5937 ft 302 kts 40°
2026-05-04 20:29 50.91458 13.46737 5666 ft 290 kts 41°
2026-05-04 20:29 50.92958 13.48800 5415 ft 281 kts 41°
2026-05-04 20:29 50.94405 13.50771 5283 ft 266 kts 41°
2026-05-04 20:29 50.95781 13.52640 5007 ft 256 kts 41°
2026-05-04 20:30 50.97098 13.54433 4689 ft 250 kts 41°
2026-05-04 20:30 50.98416 13.56230 4355 ft 243 kts 41°
2026-05-04 20:30 50.99664 13.57933 4042 ft 238 kts 41°
2026-05-04 20:30 51.00910 13.59632 3729 ft 235 kts 42°
2026-05-04 20:31 51.02134 13.61305 3421 ft 227 kts 41°
2026-05-04 20:31 51.03301 13.62900 3132 ft 216 kts 41°
2026-05-04 20:31 51.04411 13.64418 2852 ft 206 kts 41°
2026-05-04 20:31 51.05464 13.65859 2614 ft 194 kts 41°
2026-05-04 20:32 51.06454 13.67215 2348 ft 183 kts 41°
2026-05-04 20:32 51.07382 13.68487 2121 ft 166 kts 40°
2026-05-04 20:32 51.08204 13.69614 1898 ft 146 kts 40°
2026-05-04 20:32 51.08939 13.70624 1680 ft 135 kts 41°
2026-05-04 20:33 51.09646 13.71595 1479 ft 134 kts 41°
2026-05-04 20:33 51.10351 13.72556 1338 ft 133 kts 41°
2026-05-04 20:33 51.11048 13.73524 1189 ft 133 kts 41°
2026-05-04 20:33 51.11755 13.74490 1009 ft 135 kts 41°
2026-05-04 20:34 51.12469 13.75468 822 ft 137 kts 41°
2026-05-04 20:34 51.13131 13.76382 751 ft 108 kts 41°
2026-05-04 20:34 51.13621 13.77060 732 ft 72 kts 40°
2026-05-04 20:34 51.13865 13.77393 723 ft 18 kts 40°
2026-05-04 20:35 51.13891 13.77527 724 ft 15 kts 123°
2026-05-04 20:35 51.13815 13.77668 715 ft 18 kts 132°
2026-05-04 20:35 51.13755 13.77716 713 ft 8 kts 201°
2026-05-04 20:35 51.13710 13.77657 716 ft 11 kts 220°
2026-05-04 20:36 51.13640 13.77562 721 ft 15 kts 220°
2026-05-04 20:36 51.13555 13.77443 724 ft 18 kts 220°
2026-05-04 20:36 51.13462 13.77316 730 ft 18 kts 220°
2026-05-04 20:36 51.13371 13.77189 736 ft 16 kts 218°
2026-05-04 20:37 51.13280 13.77064 743 ft 18 kts 221°
2026-05-04 20:37 51.13179 13.76926 745 ft 21 kts 220°
2026-05-04 20:37 51.13077 13.76786 747 ft 18 kts 224°
2026-05-04 20:37 51.12981 13.76653 751 ft 19 kts 221°
2026-05-04 20:38 51.12881 13.76515 750 ft 18 kts 220°
2026-05-04 20:38 51.12797 13.76440 754 ft 11 kts 176°
2026-05-04 20:38 51.12772 13.76491 752 ft 4 kts 128°
2026-05-04 20:38 51.12752 13.76527 753 ft 6 kts 131°
2026-05-04 20:39 51.12713 13.76599 750 ft 10 kts 130°
2026-05-04 20:39 51.12671 13.76603 751 ft 6 kts 218°
2026-05-04 20:39 51.12644 13.76564 753 ft 2 kts 220°
2026-05-04 20:39 51.12632 13.76548 750 ft 2 kts 221°
2026-05-04 20:40 51.12627 13.76541 750 ft 0 kts 221°